ROMMA est une association bénévole à but non lucratif. Votre soutien est indispensable : ADHERER à ROMMA ou FAIRE un DON

Chambon - (38, Isère)

Oisans (2460 m)   Longitude: 06° 10' 42" E   Latitude: 45° 01' 32" N Station partenaire n°803
 

Détail journalier du     <<     >>

Température Humidité Vent Dir Rafale Dir. rafale Neige 1 Neige 2
Heure (°C) (%) (km/h) (km/h) (cm) (cm)
01:00 0.96930S75S3073
02:00 1.46539S98S074
03:00 1.16537SSE94SSE086
04:00 1.06133SE89SE095
05:00 1.06026ESE89ESE093
06:00 1.65625ESE92ESE092
07:00 1.85427E105E090
08:00 0.76425ENE97ENE089
09:00 -0.37317ENE89ENE089
10:00 2.45626E75SE091
11:00 1.96024SE80SE0100
12:00 -2.19316NE59NE099
13:00 -0.2797ENE52SE0100
14:00 -2.79611ENE46ENE0101
15:00 -2.09210ENE48ENE0102
16:00 -3.09712NE41ENE0103
17:00 -2.8988NE25NE0104
18:00 -2.9988OSO25O0104
19:00 -3.39911OSO23O0104
20:00 -3.19910SO18SO0101
21:00 -2.9999SO24ONO0104
22:00 -2.7987ONO20ONO0102
23:00 -2.89910O18O0101
minuit -2.8997OSO19OSO0105

Graphique du 23-11-2019

 

Serveur OMMA